{"data":{"norad_id":63181,"epoch":"2026-09-22T18:13:42.685248Z","epoch_age_seconds":115596,"freshness":"FRESH","line1":"1 63181U 25047D   26265.75952182  .00000331  00000+0  57387-4 0  9997","line2":"2 63181  97.9587  89.1225 0008345 223.2094 136.8461 14.74435373 82432","mean_motion":14.74435373,"eccentricity":0.0008345,"inclination_deg":97.9587,"raan_deg":89.1225,"arg_perigee_deg":223.2094,"mean_anomaly_deg":136.8461,"bstar":5.7387e-5,"rev_number":8243,"period_min":97.664504417719,"perigee_km":641.08174698548,"apogee_km":652.80660747027,"semimajor_km":7025.0811772279,"source":"CELESTRAK","updated_at":"2026-09-23T09:00:21.884484Z"}}